SCP
0 0 0 0 0 0 0 0 0 0 1 1 1 1 1 1 1 1 1 1 1 1 1 1 1 1 1 1 1 2 3 3 3 4 4 4 4 4 3 2 1 1 2
0 0 0 0 0 0 0 0 0 0 0 1 1 1 1 1 1 1 1 1 1 1 1 1 1 1 1 1 1 2 4 4 4 4 5 5 4 4 3 2 2 2 2
0 0 0 0 0 0 0 0 0 0 0 0 1 1 1 1 1 1 1 1 1 1 1 1 1 1 1 1 1 2 3 5 5 6 5 5 4 3 3 3 2 2 2
0 0 0 1 1 1 0 0 0 0 0 0 0 0 0 1 1 1 1 1 1 1 1 1 1 1 1 1 1 1 3 5 7 8 6 4 4 3 3 3 3 2 2
0 0 1 1 1 1 1 1 1 0 0 0 0 0 0 1 1 1 1 1 1 1 1 1 1 1 1 1 1 1 3 6 8 8 6 4 4 3 3 3 3 2 2
1 1 1 1 1 1 1 1 1 1 1 1 1 1 1 1 1 1 1 1 1 1 1 1 1 1 1 2 2 2 4 7 8 7 6 4 3 3 3 3 3 2 2
1 1 1 2 2 1 1 1 1 1 1 1 1 1 1 1 1 1 1 1 1 1 1 1 1 1 2 2 3 5 6 7 7 6 5 4 3 3 2 2 2 2 1
1 1 1 2 2 1 1 1 1 1 1 1 1 1 1 1 1 1 0 0 0 0 1 1 1 1 1 3 4 6 7 6 5 5 5 4 3 2 2 1 1 1 1
1 1 1 1 1 1 1 1 1 1 1 1 1 1 1 1 1 1 0 0 0 0 1 1 1 1 1 2 3 5 5 4 4 3 3 3 2 2 1 2 1 1 1
1 1 1 1 1 1 1 1 1 1 1 1 1 1 1 1 1 0 0 0 1 1 1 1 1 1 1 1 2 2 3 2 2 2 2 2 2 1 1 2 1 1 1
1 1 2 2 2 2 1 1 1 1 1 1 0 0 0 0 0 0 0 0 1 1 0 0 0 1 1 1 1 1 1 1 1 1 1 1 1 1 1 1 1 1 1
1 1 2 2 2 2 2 2 1 1 1 0 0 0 0 0 0 0 0 0 0 0 0 0 0 0 0 1 1 1 0 0 1 1 1 1 1 1 1 1 1 1 1
1 1 2 2 1 1 1 1 1 1 1 0 0 0 0 0 0 0 0 0 0 0 0 0 0 0 0 1 1 1 0 0 0 0 1 1 1 1 1 1 1 1 1
1 1 1 1 1 1 1 1 1 1 1 0 0 0 0 0 0 0 0 0 0 0 0 0 0 0 0 0 1 0 0 0 0 0 1 1 1 1 1 1 1 1 1
1 1 1 1 1 1 1 1 1 1 1 0 0 0 0 0 0 0 0 0 0 0 0 0 0 0 0 0 1 1 1 1 0 1 1 1 1 1 1 1 1 1 1
1 1 1 2 2 2 2 1 1 1 0 0 0 0 0 0 0 0 0 0 0 0 0 0 0 0 0 1 1 1 1 1 1 1 1 1 1 1 1 1 1 1 1
1 1 2 2 2 2 2 1 1 1 1 0 0 0 0 0 0 0 0 0 0 0 0 0 0 0 0 1 1 1 2 2 1 1 1 1 1 1 0 0 0 0 1
2 2 2 2 2 2 2 1 1 1 1 0 0 0 0 0 0 0 0 0 0 0 0 0 0 0 0 1 1 2 2 2 1 0 1 1 1 0 0 0 0 0 0
2 2 2 2 2 2 2 2 1 1 1 1 1 0 0 0 0 0 0 0 0 0 0 0 0 0 0 1 1 2 3 3 1 1 1 1 1 0 0 0 0 0 0
2 2 2 2 2 2 2 2 2 2 2 1 1 1 0 0 0 0 0 0 0 0 0 0 0 0 0 1 1 2 3 3 2 1 1 1 1 0 0 0 0 0 0
2 2 2 3 2 3 2 2 2 2 2 2 1 1 0 0 0 0 0 0 0 0 0 0 0 0 0 1 1 2 2 2 2 1 1 1 1 0 0 0 0 0 0
2 2 2 2 3 3 3 2 2 2 2 2 1 1 0 0 0 0 0 1 1 0 0 0 0 0 0 1 1 1 1 1 1 1 1 1 1 0 0 0 0 0 0
1 1 2 2 2 3 3 2 2 2 2 1 1 1 0 0 0 0 0 0 1 0 0 0 0 0 0 1 1 1 1 1 1 1 1 1 1 0 0 0 0 0 0
1 1 1 1 2 2 2 2 2 2 1 1 1 1 0 0 0 0 0 0 1 1 0 0 0 0 0 1 1 1 1 0 1 1 1 1 0 0 0 0 0 0 1
1 1 1 1 2 2 2 2 2 1 1 1 1 1 1 0 0 0 0 0 0 0 0 0 0 0 1 1 1 1 1 1 1 1 1 1 1 1 0 0 1 1 1
1 1 1 2 2 2 2 2 1 1 1 1 1 1 1 1 0 0 0 0 0 0 0 0 0 1 1 1 1 1 1 1 1 1 1 1 1 1 1 1 1 1 1
Wind_Speed
2 3 4 4 4 5 5 6 6 6 7 7 7 6 6 7 7 7 7 7 7 7 6 6 6 5 5 5 5 5 5 5 5 5 5 5 5 5 4 3 1 3 6
3 3 5 4 4 5 5 6 7 7 7 7 7 7 7 7 7 7 7 7 7 7 6 6 6 5 4 4 4 4 4 5 5 5 4 5 5 5 5 4 3 4 5
3 4 4 4 5 5 6 7 7 7 7 7 7 7 7 7 7 7 7 7 7 7 7 7 6 6 5 4 3 3 5 5 5 4 3 3 6 6 5 4 4 4 4
4 4 5 5 5 6 7 7 7 7 7 7 7 8 8 8 8 8 8 8 8 8 8 8 7 6 6 5 3 4 6 6 5 3 2 3 4 7 5 5 4 5 4
4 4 6 5 6 6 7 7 7 7 7 7 8 8 8 8 8 9 9 9 9 9 8 8 8 8 7 7 6 6 8 8 5 2 4 4 4 7 6 5 5 5 5
5 4 7 5 6 6 7 7 7 8 8 8 8 8 9 9 9 9 9 9 9 9 9 9 9 9 8 8 9 10 9 7 4 5 4 4 5 7 6 6 5 5 5
5 5 6 6 6 6 7 7 7 8 8 8 8 9 9 9 9 9 9 9 9 9 9 9 9 9 9 9 9 10 9 5 4 5 4 5 7 8 6 6 5 5 5
5 5 6 6 6 7 8 7 8 8 8 9 9 9 9 9 9 9 9 9 9 9 9 10 9 9 9 9 10 9 8 3 5 5 5 6 8 7 7 6 5 5 5
5 5 5 5 7 8 8 9 8 8 9 10 9 9 9 9 9 9 10 10 10 9 9 9 9 9 9 9 9 9 8 5 4 4 5 6 8 7 7 7 6 5 5
5 5 5 5 6 6 8 10 10 10 10 10 10 9 8 8 8 8 9 10 9 9 9 9 9 9 8 8 8 7 5 1 5 5 5 7 8 7 7 6 6 5 5
4 4 4 5 6 6 6 8 7 9 9 6 8 8 5 5 6 6 11 10 10 10 10 9 9 8 6 7 7 5 1 3 5 5 6 9 8 7 7 7 7 7 6
5 4 4 4 5 5 5 5 4 5 5 5 5 5 4 5 6 6 9 9 9 8 8 8 6 3 1 4 5 2 2 4 4 5 7 10 9 8 8 8 8 8 7
5 5 4 4 4 4 4 4 3 3 3 4 5 6 4 5 4 4 3 4 5 4 5 5 2 3 3 3 3 3 4 3 3 4 8 10 9 9 10 10 10 10 9
5 4 4 4 4 4 4 4 3 3 3 3 4 5 4 3 3 3 3 4 3 3 4 3 3 4 4 4 4 4 5 3 4 4 7 10 10 10 10 10 10 10 10
5 5 4 4 4 4 4 3 3 3 3 4 3 3 4 3 3 3 3 3 3 3 3 3 2 4 4 4 4 4 5 5 5 4 5 10 10 11 11 11 10 10 10
4 5 5 4 3 3 3 3 3 3 3 3 3 3 3 3 3 3 3 3 3 3 3 2 3 3 3 3 4 4 5 4 5 5 5 6 10 11 11 11 11 10 10
4 5 5 4 4 3 4 4 3 2 2 2 2 2 3 3 3 3 2 2 2 2 2 2 3 2 2 2 3 4 4 5 5 5 5 4 5 9 10 11 11 11 11
3 4 5 4 4 4 3 3 3 3 2 2 2 2 3 3 3 2 2 2 2 2 2 2 2 2 2 2 2 3 3 3 5 5 4 4 4 4 7 10 10 11 11
3 4 5 4 4 4 3 3 3 3 2 2 2 2 3 3 3 2 2 2 2 2 2 2 2 2 2 2 2 2 3 3 3 3 4 5 4 4 4 7 8 10 11
3 3 3 4 4 4 3 3 3 3 2 2 2 3 3 3 3 3 2 2 2 2 2 2 3 2 2 1 1 2 2 2 3 3 4 4 4 5 5 5 4 6 9
4 4 4 4 4 3 3 2 2 2 2 2 2 3 3 3 3 3 2 2 2 2 2 3 2 2 1 1 1 1 2 2 3 2 2 3 4 4 4 4 4 4 4
3 3 3 3 4 3 2 2 1 2 2 2 2 3 3 3 3 2 2 1 2 2 2 2 2 1 1 1 1 1 1 2 2 2 2 2 3 3 3 4 4 4 4
4 3 3 3 3 3 3 2 2 2 2 2 2 2 2 3 3 3 3 2 2 1 1 2 2 1 0 0 1 2 1 0 1 2 2 2 3 2 2 3 4 4 4
4 4 4 4 4 4 4 3 3 2 2 2 1 2 2 3 3 3 3 2 2 2 2 1 2 1 1 1 0 1 2 1 1 1 1 1 2 2 2 2 3 3 4
5 4 4 4 4 4 4 3 3 3 2 2 2 2 2 2 2 3 2 2 2 2 2 2 2 2 1 1 1 0 1 0 2 2 1 0 0 1 2 2 2 2 3
4 4 4 4 4 3 4 4 3 3 3 3 2 2 1 1 1 2 2 2 2 2 2 2 2 2 1 1 1 1 0 1 1 1 2 1 1 1 1 1 1 1 2
Wind_Direction
74 61 60 40 45 51 57 66 68 71 70 72 73 74 81 87 86 82 80 81 81 82 84 85 86 88 93 100 106 110 113 112 108 106 105 103 101 96 95 93 114 113 85
92 80 74 56 58 57 63 68 70 72 71 75 76 73 81 87 87 86 79 78 81 83 82 78 76 80 87 94 102 115 120 121 115 113 121 126 109 94 95 88 50 58 83
90 88 95 67 61 64 71 75 75 75 73 75 76 73 78 85 86 85 81 76 76 78 77 74 70 69 73 76 93 131 136 126 119 126 169 137 113 95 89 90 80 71 82
85 81 77 68 61 67 75 79 79 78 78 79 77 74 75 81 85 83 81 76 72 72 70 70 65 62 63 55 60 108 128 125 120 165 154 90 93 89 79 80 77 76 75
86 79 79 69 64 67 76 79 82 79 76 78 77 72 72 76 77 76 76 74 71 68 67 68 65 64 62 58 67 94 111 116 124 137 79 78 76 81 76 75 69 66 67
95 88 85 71 69 69 76 81 80 82 78 77 76 73 72 75 77 73 71 72 70 68 68 69 67 65 64 64 73 87 96 103 129 87 76 79 79 77 73 72 67 63 62
98 88 88 72 71 73 77 82 81 81 79 76 73 72 73 76 76 73 70 70 69 67 68 68 68 67 64 66 73 81 83 82 80 84 80 72 70 69 66 64 62 61 63
95 89 92 81 71 76 73 76 83 82 80 76 72 69 68 71 73 70 67 68 68 66 65 67 67 69 66 63 68 74 73 52 87 77 72 71 68 64 61 60 58 55 54
93 91 90 91 99 98 81 69 73 76 78 76 72 70 69 68 71 68 67 64 66 66 65 64 65 66 68 68 69 70 66 37 57 69 70 68 66 61 59 55 51 49 51
94 89 87 81 81 94 97 80 72 72 70 73 71 68 71 81 82 74 72 64 64 64 63 61 61 63 67 70 73 73 68 57 65 66 61 69 65 58 56 53 51 51 57
102 95 92 86 82 82 83 89 88 84 72 76 79 71 70 71 71 79 64 63 63 64 63 60 60 62 70 83 77 73 86 64 70 60 58 57 56 55 53 54 53 54 62
118 104 94 91 84 84 81 84 79 78 76 66 68 69 64 66 61 61 80 69 67 68 74 65 64 81 66 87 96 113 65 68 68 65 64 52 51 52 53 54 55 56 62
121 111 101 98 91 86 88 78 73 75 71 63 62 67 63 67 71 61 70 84 77 69 66 76 78 56 62 66 58 63 52 51 60 61 66 54 51 53 55 57 56 56 59
121 114 109 105 103 91 86 85 84 82 78 72 61 61 60 58 53 52 52 50 49 48 49 50 41 50 54 67 68 69 68 57 60 62 70 57 51 54 56 57 57 56 56
133 128 121 121 110 104 96 92 89 77 70 80 67 57 62 60 59 54 54 49 45 43 47 44 40 50 47 52 54 54 58 58 61 65 75 66 54 53 53 52 53 54 52
144 138 134 136 119 110 102 101 90 87 86 77 72 59 62 63 59 57 56 49 47 39 32 35 41 45 46 49 54 54 53 58 61 68 69 77 67 56 52 50 49 49 47
149 148 141 136 134 122 106 96 92 89 89 80 75 64 67 63 58 62 51 53 45 40 33 37 47 39 49 61 73 66 61 52 58 62 63 56 69 69 56 49 46 44 42
152 152 143 148 148 132 118 111 99 85 81 77 72 62 61 63 61 58 50 42 43 45 36 40 33 43 49 46 60 64 68 63 58 52 58 62 53 55 68 55 47 43 42
158 154 150 151 149 137 124 118 105 97 84 76 71 64 53 56 56 63 49 37 43 44 41 38 41 33 46 41 56 67 65 63 57 52 57 57 60 59 61 72 58 47 41
157 154 153 150 154 141 137 128 115 95 88 80 70 60 56 50 51 57 62 51 48 50 46 39 51 48 41 30 50 70 75 80 69 54 50 57 51 53 51 51 58 59 49
156 156 155 164 161 158 152 154 142 128 110 94 80 68 62 53 49 51 45 53 46 55 45 40 40 72 69 34 77 114 113 96 74 75 52 53 58 48 51 49 44 37 54
164 165 163 168 168 168 158 154 143 125 110 88 77 69 57 51 46 42 52 63 65 72 66 53 37 11 70 349 299 253 178 151 102 81 69 53 48 46 41 42 46 45 33
171 170 175 173 164 166 165 157 146 143 149 123 108 86 61 59 55 45 41 38 43 52 53 43 29 7 325 1 348 326 296 323 107 113 79 60 44 37 44 37 42 46 41
177 174 175 172 164 163 165 166 164 161 143 124 112 108 98 73 63 52 45 39 41 38 48 29 17 350 311 312 32 349 336 353 278 181 147 68 44 40 33 30 33 43 38
176 174 175 173 169 170 171 162 177 167 148 133 131 126 109 82 64 57 43 44 43 37 35 28 9 352 330 324 337 336 352 277 282 272 246 254 41 47 29 22 22 31 31
175 174 176 177 174 177 182 177 179 169 160 153 161 146 131 111 84 66 46 50 46 39 39 29 22 8 359 2 328 330 311 283 303 285 276 271 291 11 13 26 5 16 20